sat.trackr.live / text

‹ back to catalog

ONEWEB-0557

NORAD 56058 · 2023-043N

PAYLOAD ACTIVE UNKNOWN

§ Identity

Operator
Country
UK
Launch date
2023-03-26
Launch site
SRILR
Launch vehicle
Mass (kg)
RCS (m²)

Purposes: comms

External: N2YO · Heavens-Above · Gunter

§ Orbital elements

Epoch: 2026-09-20T03:24:03.767328Z

Period
109.37 min
Inclination
87.9157°
Eccentricity
0.0002954
Mean motion
13.16594865 rev/d
Perigee alt
1,195.5 km
Apogee alt
1,200.0 km
Semi-major
7,575.9 km
B*
7.6962e-5
RAAN
209.9308°
Arg perigee
97.1747°
Mean anomaly
262.9720°
Rev number
17,145

§ Raw data

ONEWEB-05571 56058U 23043N   26263.14171027  .00000042  00000+0  76962-4 0  99972 56058  87.9157 209.9308 0002954  97.1747 262.9720 13.16594865171453

JSON: /api/v1/satellites/56058 · /tle

For live sub-satellite position, see the globe view (requires WebGL).

§ Visibility from observer

Set your observer location to see the next 7 days of passes ≥ 10°. The values pass through the URL so the page stays shareable.

No JS? Fill the form by hand. The geolocation button needs JavaScript.